User: anonymous   Login
Location: Unspecified
(0.0000°N, 0.0000°E)
Time: 12:17:47
(UTC+01:00)
Language:

Orbus 21S - Orbit

View from above orbital plane
View from above orbital plane
View from above satellite
View from above satellite

Ground track
Ground track

The orbit data is extracted from the following two-line orbital elements,

1 20669U 90056C   17057.19158890  .00001120  00000-0  29706-3 0  9995
2 20669  24.0197 133.5008 7121254 303.4409   7.7915  2.47869808224653
Epoch (UTC): 26 February 2017 04:35:53
Eccentricity: 0.7121254
inclination: 24.0197°
perigee height: 261 km
apogee height: 33108 km
right ascension of ascending node: 133.5008°
argument of perigee: 303.4409°
revolutions per day: 2.47869808
mean anomaly at epoch: 7.7915°
orbit number at epoch: 22465

The dashed part of the orbit path shows where the satellite is in the earth's shadow,  

DLR